Terug naar catalogus

STARLINK-33750

ActiefCommunicatieVLEO
NORAD 63513·PAYLOAD·🇺🇸 United States

Gelanceerd Apr 7, 2025 vanaf Vandenberg Space Force Base

Loading…

Volgende Passages (komende 24 uur)

TLE

VersSource: CelesTrak SupGP

Epoch: Sep 15, 2026, 02:52 UTC

1 63513C 25071W   26258.11993056  .00067300  00000+0  21640-2 0  2588
2 63513  53.1593 338.6749 0001211  93.2211 179.0091 15.31670737    17

Volg STARLINK-33750 in realtime met AllMySat

Download on the App Store